Weather History for South Lake Tahoe, CA

Change the Weather History Date:

Sunday, February 23, 2014

  Actual Average Record
Temperature  
Mean Temperature 40 °F 32 °F  
Max Temperature 58 °F 45 °F 58 °F (2014)
Min Temperature 21 °F 19 °F 1 °F (1996)
Degree Days  
Heating Degree Days 25 33  
Month to date heating degree days 645 791  
Since 1 July heating degree days 4486 5073  
Cooling Degree Days 0 0  
Month to date cooling degree days 0 0  
Year to date cooling degree days 0 0  
Moisture  
Dew Point 22 °F    
Average Humidity 53    
Maximum Humidity 84    
Minimum Humidity 22    
Precipitation  
Precipitation 0.00 in - 1.49 in (1956)
Month to date precipitation 4.52  
Year to date precipitation 6.79  
Sea Level Pressure  
Sea Level Pressure 30.05 in    
Wind  
Wind Speed 3 mph (South)    
Max Wind Speed 12 mph    
Max Gust Speed 16 mph    
Visibility 10 miles    
Events      
T = Trace of Precipitation, MM = Missing Value Source: NWS Daily Summary

Daily Weather History Graph

Daily Weather History Graph

Search for Another Location

Airport:

Trip Planner

Search our weather history database for the weather conditions in past years. The results will help you decide how hot, cold, wet, or windy it might be!

Date:

Astronomy

Feb. 23, 2014 Rise Set
Actual Time 6:40 AM PST 5:46 PM PST
Civil Twilight 6:13 AM PST 6:13 PM PST
Nautical Twilight 5:42 AM PST 6:44 PM PST
Astronomical Twilight 5:12 AM PST 7:15 PM PST
Moon 1:42 AM PST (2/23) 11:55 AM PST (2/23)
Length of Visible Light 11h 59m
Length of Day
11h 05m
Last Quarter, 38% of the Moon is Illuminated
Feb 23
Last Quarter
Mar 1
New
Mar 8
First Quarter
Mar 16
Full
Mar 23
Last Quarter

Hourly Weather History & Observations

Time (PST) Temp. Windchill Dew Point Humidity Pressure Visibility Wind Dir Wind Speed Gust Speed Precip Events Conditions
12:53 AM 27.0 °F - 21.0 °F 78% 30.01 in 10.0 mi Calm Calm - N/A   Clear
1:53 AM 27.0 °F 21.6 °F 21.0 °F 78% 30.00 in 10.0 mi South 4.6 mph - N/A   Clear
2:53 AM 26.1 °F 21.9 °F 19.9 °F 78% 30.00 in 10.0 mi SSW 3.5 mph - N/A   Clear
3:53 AM 25.0 °F - 19.0 °F 78% 30.00 in 10.0 mi Calm Calm - N/A   Clear
4:53 AM 23.0 °F 18.4 °F 17.1 °F 78% 30.03 in 10.0 mi SSW 3.5 mph - N/A   Clear
5:53 AM 21.9 °F 15.7 °F 17.1 °F 82% 30.07 in 10.0 mi South 4.6 mph - N/A   Clear
6:53 AM 21.0 °F 16.2 °F 15.1 °F 78% 30.10 in 10.0 mi South 3.5 mph - N/A   Clear
7:53 AM 25.0 °F 19.3 °F 18.0 °F 75% 30.11 in 10.0 mi South 4.6 mph - N/A   Clear
8:53 AM 34.0 °F - 21.9 °F 61% 30.09 in 10.0 mi Calm Calm - N/A   Clear
9:53 AM 43.0 °F 40.3 °F 23.0 °F 45% 30.06 in 10.0 mi ENE 4.6 mph - N/A   Clear
10:53 AM 46.9 °F - 26.1 °F 44% 30.06 in 10.0 mi NNE 8.1 mph - N/A   Clear
11:53 AM 51.1 °F - 27.0 °F 39% 30.03 in 10.0 mi Variable 6.9 mph - N/A   Clear
12:53 PM 53.1 °F - 26.1 °F 35% 30.01 in 10.0 mi Variable 4.6 mph - N/A   Clear
1:53 PM 55.9 °F - 19.0 °F 24% 29.98 in 10.0 mi Variable 6.9 mph - N/A   Clear
2:53 PM 55.9 °F - 18.0 °F 23% 29.98 in 10.0 mi Variable 4.6 mph - N/A   Clear
3:53 PM 55.9 °F - 19.9 °F 25% 29.98 in 10.0 mi Variable 4.6 mph - N/A   Clear
4:53 PM 51.1 °F - 24.1 °F 35% 30.02 in 10.0 mi Calm Calm - N/A   Clear
5:53 PM 43.0 °F - 27.0 °F 53% 30.07 in 10.0 mi Calm Calm - N/A   Clear
6:53 PM 39.0 °F - 26.1 °F 60% 30.10 in 10.0 mi Calm Calm - N/A   Clear
7:53 PM 35.1 °F - 26.1 °F 70% 30.10 in 10.0 mi Calm Calm - N/A   Clear
8:53 PM 32.0 °F 27.5 °F 25.0 °F 75% 30.10 in 10.0 mi South 4.6 mph - N/A   Clear
9:53 PM 30.9 °F - 23.0 °F 72% 30.08 in 10.0 mi Calm Calm - N/A   Clear
10:53 PM 28.9 °F 25.2 °F 21.9 °F 75% 30.08 in 10.0 mi SSW 3.5 mph - N/A   Clear
11:53 PM 28.0 °F - 21.0 °F 75% 30.06 in 10.0 mi Calm Calm - N/A   Clear